Wind_Speed
15 15 16 16 16 16 15 13 12 12 12 13 12 12 12 12 13 14 16 16 15 14 13 13 13 13 15 16 17 19 19 19
18 18 18 18 18 18 17 16 15 15 16 16 15 14 14 13 14 15 16 18 16 15 14 13 13 14 15 16 18 20 19 20
22 19 19 21 21 20 19 19 18 17 17 16 15 15 16 15 15 16 17 18 18 17 15 14 14 15 16 16 20 21 20 20
20 20 21 23 23 22 21 19 18 17 16 16 15 15 16 15 14 16 17 17 17 18 18 16 16 16 17 17 21 23 22 22
19 15 19 21 22 22 21 19 18 17 16 16 16 15 15 16 16 15 17 16 17 17 18 17 18 19 18 18 21 24 22 22
18 16 13 18 21 22 21 20 18 17 16 16 17 17 18 17 16 17 18 18 18 19 20 19 19 18 20 20 20 24 23 23
20 28 26 16 17 22 22 20 18 18 17 18 19 19 16 17 18 18 19 20 19 20 22 21 21 21 21 21 21 24 25 23
20 28 29 25 23 23 21 19 19 20 19 18 16 15 19 24 24 23 23 23 24 23 24 24 24 23 22 23 23 24 25 25
25 15 27 27 26 26 26 24 23 19 18 18 20 23 26 27 29 27 26 26 26 26 27 28 26 26 25 24 25 25 26 26
26 20 29 22 24 21 20 19 18 18 20 25 30 32 33 35 39 37 33 31 30 29 29 31 28 27 26 27 27 27 27 27
30 23 22 18 20 20 19 20 21 24 28 32 36 38 40 37 38 39 39 37 36 34 33 34 32 29 28 29 29 30 29 29
22 22 24 25 22 25 26 27 30 33 38 41 40 36 36 33 40 38 38 37 37 39 39 39 36 31 30 30 30 30 31 31
21 27 35 37 30 25 28 31 34 35 35 36 35 31 38 39 44 43 37 39 44 51 44 38 34 32 31 29 29 30 31 32
19 26 27 29 27 27 29 32 35 36 36 37 34 36 39 42 48 46 45 51 46 51 46 40 34 32 32 31 31 30 31 29
20 24 24 24 26 28 32 34 38 37 35 38 38 42 41 46 50 51 52 54 52 49 44 40 33 30 31 32 33 31 28 28
25 26 28 32 35 36 37 37 37 37 39 41 42 44 45 45 46 48 49 49 49 47 45 42 37 30 32 31 33 32 29 26
27 28 29 28 30 33 35 36 37 38 39 42 43 44 46 48 49 48 47 47 46 46 46 43 41 35 32 32 31 32 31 27
27 27 28 31 33 34 37 39 40 45 50 53 52 50 51 52 54 54 54 49 45 43 43 44 43 41 36 35 32 32 32 28
28 30 32 34 37 38 40 42 48 50 51 51 50 50 48 42 41 46 50 51 51 51 45 43 44 44 40 37 34 31 33 29
32 34 36 39 41 42 44 44 46 52 52 47 42 40 38 36 34 35 35 38 41 46 50 52 49 48 45 40 36 33 32 31
Wind_Direction
256 253 254 252 254 251 249 250 252 260 269 277 281 284 289 296 303 310 309 304 297 289 281 277 274 272 270 266 262 261 258 256
253 253 253 253 254 249 246 246 249 255 262 266 268 271 275 280 287 294 300 299 297 291 284 280 276 273 270 271 269 263 257 254
260 253 254 254 254 250 246 247 249 253 257 260 262 267 271 274 279 288 292 288 289 289 286 282 277 273 270 266 263 264 263 259
271 269 260 253 249 247 246 248 249 249 252 257 258 262 268 273 274 276 283 288 291 293 295 294 287 280 273 267 265 261 259 258
273 284 268 254 249 248 246 247 248 248 251 256 260 261 262 263 268 283 287 288 289 292 293 292 291 286 276 269 264 263 260 258
304 307 300 269 264 257 253 250 250 255 260 263 266 266 267 274 283 284 284 283 285 288 290 291 288 283 278 271 263 264 261 258
306 320 319 321 291 280 272 265 260 260 254 255 257 263 272 275 275 277 283 286 290 293 295 295 291 285 277 271 266 263 261 255
295 323 308 319 318 282 267 260 251 245 240 248 260 275 284 283 282 285 286 287 291 292 293 293 291 284 277 270 265 263 264 262
292 311 294 307 304 296 275 269 262 261 262 266 272 277 268 273 273 275 280 280 284 293 295 294 292 283 277 269 263 260 258 259
288 289 295 302 301 285 277 276 281 278 282 282 279 276 273 273 276 277 278 278 278 282 291 290 292 283 276 271 265 260 257 255
280 290 296 294 286 282 270 267 270 271 271 272 273 276 279 281 281 283 282 282 281 283 288 290 288 282 274 266 262 259 256 254
271 280 287 288 272 264 262 264 267 269 269 268 277 274 283 280 285 289 288 291 286 291 291 288 286 281 273 266 260 255 251 248
266 294 292 294 285 274 282 277 278 280 281 275 279 282 274 277 277 276 279 278 279 286 283 280 279 278 270 265 258 254 250 245
303 293 286 290 293 291 286 282 278 275 271 273 272 269 268 269 271 273 272 275 278 277 279 278 276 273 270 263 257 250 248 248
309 308 303 303 304 299 295 290 292 290 284 279 277 276 272 269 270 268 274 271 269 271 273 274 273 268 265 260 257 252 244 242
325 321 320 314 309 302 299 299 296 294 293 290 287 283 281 278 273 268 266 266 267 269 270 272 270 263 261 257 256 254 248 235
322 317 309 306 301 299 298 297 295 293 290 286 283 279 277 274 274 272 270 268 265 265 266 264 264 262 257 255 251 251 247 239
320 314 309 305 304 302 300 298 294 290 289 288 285 282 275 273 268 266 264 263 262 259 256 257 259 259 254 253 248 244 247 241
318 314 311 307 303 301 300 298 297 296 296 294 290 288 288 283 275 270 266 263 261 254 251 250 250 251 250 246 246 239 240 236
316 314 316 314 313 308 305 301 298 295 294 294 294 292 286 282 277 273 272 266 262 256 252 251 246 246 243 241 239 240 234 230
Height
3146 3145 3145 3145 3145 3144 3144 3144 3144 3144 3145 3145 3144 3144 3143 3143 3142 3142 3142 3141 3141 3141 3141 3140 3139 3139 3139 3139 3137 3137 3139 3140
3143 3142 3142 3142 3141 3141 3141 3141 3140 3140 3141 3141 3141 3140 3140 3139 3139 3139 3139 3139 3138 3137 3137 3137 3137 3136 3136 3136 3135 3134 3137 3137
3140 3139 3139 3138 3138 3138 3137 3137 3136 3136 3136 3137 3137 3136 3136 3136 3136 3136 3136 3135 3135 3134 3134 3134 3134 3133 3133 3133 3131 3131 3133 3135
3136 3136 3135 3134 3134 3133 3133 3133 3132 3132 3132 3132 3133 3133 3132 3132 3132 3132 3132 3132 3131 3130 3130 3130 3129 3130 3130 3130 3128 3127 3129 3130
3133 3134 3131 3131 3130 3129 3129 3129 3129 3129 3129 3129 3130 3130 3129 3129 3129 3128 3128 3128 3128 3127 3126 3126 3125 3125 3125 3125 3124 3123 3125 3126
3129 3130 3131 3129 3129 3127 3126 3126 3126 3126 3126 3127 3126 3126 3126 3125 3124 3124 3123 3124 3124 3123 3122 3122 3122 3121 3120 3120 3120 3118 3120 3121
3128 3126 3127 3129 3127 3126 3125 3124 3124 3124 3123 3123 3123 3122 3121 3121 3121 3120 3119 3118 3118 3118 3118 3117 3116 3116 3116 3115 3115 3114 3114 3116
3125 3123 3121 3121 3123 3122 3121 3120 3119 3120 3120 3119 3118 3117 3117 3116 3114 3114 3113 3113 3112 3111 3111 3111 3111 3110 3110 3110 3110 3110 3109 3110
3123 3121 3121 3117 3116 3117 3116 3114 3113 3114 3114 3114 3113 3112 3111 3109 3109 3108 3108 3107 3106 3104 3104 3104 3104 3104 3104 3104 3104 3104 3105 3105
3119 3118 3118 3115 3113 3115 3114 3112 3111 3111 3110 3108 3107 3106 3105 3103 3101 3101 3100 3100 3100 3100 3097 3097 3097 3097 3097 3096 3097 3097 3098 3099
3115 3114 3116 3114 3111 3111 3111 3110 3108 3107 3105 3103 3101 3098 3096 3094 3093 3093 3092 3092 3092 3092 3090 3090 3089 3089 3089 3089 3089 3090 3091 3092
3111 3111 3110 3110 3109 3108 3106 3104 3103 3100 3098 3096 3094 3091 3088 3085 3082 3082 3081 3081 3081 3081 3081 3081 3079 3081 3080 3080 3081 3081 3083 3085
3108 3109 3106 3104 3102 3101 3099 3097 3095 3092 3089 3087 3085 3083 3080 3078 3075 3073 3072 3072 3070 3070 3071 3072 3071 3070 3070 3071 3072 3072 3073 3076
3111 3107 3103 3101 3097 3093 3091 3088 3085 3082 3080 3077 3075 3073 3071 3069 3066 3065 3063 3061 3061 3060 3061 3061 3062 3062 3061 3061 3063 3065 3066 3069
3107 3102 3098 3094 3089 3086 3082 3078 3074 3071 3069 3067 3064 3062 3060 3057 3053 3051 3050 3050 3050 3049 3049 3050 3052 3053 3053 3054 3054 3056 3060 3061
3101 3097 3093 3088 3084 3079 3074 3069 3065 3062 3058 3055 3052 3050 3047 3044 3041 3039 3038 3037 3036 3037 3038 3038 3041 3044 3044 3046 3047 3049 3051 3055
3097 3092 3087 3083 3078 3073 3067 3061 3056 3051 3048 3043 3040 3036 3032 3028 3026 3025 3024 3023 3024 3026 3027 3028 3029 3033 3035 3036 3039 3041 3043 3047
3093 3088 3084 3078 3071 3065 3058 3051 3046 3039 3034 3028 3024 3020 3016 3013 3010 3008 3007 3008 3009 3010 3014 3016 3019 3022 3025 3027 3030 3033 3035 3040
3087 3081 3075 3069 3062 3054 3046 3039 3032 3023 3016 3010 3005 3002 2998 2996 2993 2991 2990 2991 2992 2995 2997 3001 3006 3009 3014 3018 3021 3025 3028 3033
3081 3074 3067 3059 3050 3042 3033 3025 3016 3009 3001 2996 2991 2987 2984 2981 2979 2978 2976 2976 2976 2979 2982 2986 2990 2994 3001 3007 3012 3016 3020 3024